Temp
30 30 30 32 33 34 34 34 33 32 31 29 28 29 27 24 23 23 25 27 31 31 30 29 28 27 27 26 25 24 24 22 23 23 24 25 25 25 25 25 24 24 24 24
29 30 32 33 32 32 33 33 33 30 30 30 29 29 28 27 24 24 24 28 30 31 30 29 28 28 27 26 25 24 24 23 22 24 24 25 25 25 25 25 24 24 24 24
31 32 31 30 31 32 33 34 32 32 30 31 30 27 27 27 27 26 24 25 26 28 31 30 28 28 28 27 25 24 24 23 22 23 23 23 23 23 23 24 24 24 24 24
32 31 30 30 31 32 33 33 32 31 31 29 31 28 27 28 27 28 27 23 24 28 30 31 30 29 28 27 26 25 24 23 22 22 24 24 25 25 25 24 25 25 24 24
30 30 30 31 31 32 33 33 33 33 33 32 31 33 33 30 27 27 28 25 24 26 30 30 30 29 29 28 27 26 24 23 23 23 23 24 25 25 24 25 23 24 23 24
30 32 31 32 32 31 32 32 32 32 33 32 34 33 31 30 29 28 28 28 27 26 30 30 30 30 29 28 27 26 24 23 23 22 23 23 24 25 25 25 24 24 25 24
29 30 31 31 31 31 31 32 31 31 31 32 34 32 34 32 30 30 30 28 29 26 28 29 29 29 28 28 27 27 25 24 23 23 23 23 23 24 24 24 24 25 25 26
29 29 31 31 31 31 31 33 33 30 32 33 32 31 34 33 31 31 31 30 30 27 27 27 29 29 28 28 27 27 25 24 24 24 24 23 23 23 23 24 26 25 26 25
29 30 32 32 32 32 31 31 34 33 34 34 33 33 30 30 30 29 30 30 29 27 25 29 30 29 29 28 27 27 26 25 24 24 24 24 24 23 23 24 24 24 25 24
30 30 31 31 32 32 32 33 31 32 31 31 33 32 34 30 30 30 30 30 30 27 26 28 29 29 29 28 26 26 26 25 25 25 24 24 24 24 24 24 23 24 24 25
31 30 30 31 31 31 31 31 32 34 34 33 33 33 33 32 31 30 30 30 30 29 28 28 28 27 27 26 25 27 26 25 25 25 25 24 24 24 23 24 24 24 24 24
30 31 30 31 30 31 32 33 33 31 31 32 33 31 30 30 30 30 30 31 30 29 28 25 26 26 26 25 25 25 25 26 25 25 24 24 24 24 24 23 24 23 23 23
30 30 29 29 30 30 31 31 32 33 34 32 32 33 28 29 29 29 29 29 29 28 28 28 25 25 25 25 24 24 24 25 25 25 25 24 24 24 24 24 24 23 23 23
26 30 29 30 29 31 29 30 31 32 32 33 33 33 28 29 28 27 26 24 25 25 26 26 25 25 24 23 22 22 22 22 23 24 24 24 23 23 23 23 23 24 24 24
29 28 28 29 29 29 29 29 30 30 32 32 33 33 34 30 29 26 24 22 22 23 23 24 25 24 21 21 21 21 20 20 20 20 21 21 21 21 21 21 22 23 24 24
28 27 27 28 28 28 28 29 30 30 30 30 32 32 29 30 28 24 24 23 24 23 23 23 23 21 21 19 19 19 18 18 19 19 19 19 19 19 19 20 20 21 23 24
27 27 27 27 27 28 27 29 29 29 29 29 30 28 29 27 24 23 22 23 23 23 23 22 22 20 19 18 17 16 16 17 17 17 18 18 19 19 19 19 19 19 20 21
27 26 27 27 27 25 28 28 28 28 28 28 28 28 27 27 23 21 22 21 21 22 20 17 15 14 15 16 16 15 16 16 16 16 16 16 16 17 17 18 19 19 19 19
26 27 27 26 26 28 27 27 27 27 28 28 28 26 26 22 21 20 23 24 24 21 16 14 13 13 13 14 15 14 14 15 14 14 14 15 15 15 16 17 17 18 19 19
26 26 26 26 25 25 25 26 26 27 26 27 27 26 22 21 21 19 22 23 21 17 14 13 12 11 12 12 12 13 12 13 13 13 13 14 14 14 15 15 16 16 17 17
25 25 25 26 24 26 25 25 26 25 24 25 25 25 23 21 24 21 20 19 18 16 14 13 11 11 11 11 12 11 11 11 11 12 13 13 13 13 14 14 15 15 17 17
24 24 24 25 24 24 24 24 24 24 24 25 24 25 24 21 21 20 16 16 14 14 13 12 12 11 11 12 12 11 11 11 12 12 13 13 13 13 13 13 14 16 16 16
22 24 24 24 24 23 24 23 23 23 23 23 24 24 22 23 20 16 15 14 14 15 15 13 11 11 12 12 12 11 11 11 11 11 11 12 12 13 13 13 13 15 15 18
22 22 23 23 23 24 23 23 22 22 22 22 23 22 22 22 20 18 18 16 14 14 14 15 13 11 11 11 11 12 11 11 12 12 12 12 12 12 12 12 13 14 15 15
23 21 23 23 23 23 23 23 22 22 22 22 22 22 22 22 20 19 18 16 15 14 14 14 13 13 12 11 11 11 11 12 13 13 13 13 12 12 11 10 11 10 10 12
22 22 22 23 24 23 23 22 22 22 22 22 21 21 21 20 18 16 15 12 12 13 14 15 15 14 13 13 13 12 12 13 13 13 13 14 14 13 13 12 9 9 9 10
Height
778 786 786 771 767 764 759 768 777 781 783 797 807 804 811 821 827 830 830 829 817 820 825 832 837 842 846 850 854 858 861 865 867 869 871 872 873 876 878 879 881 882 884 886
786 787 767 763 772 774 770 775 779 789 786 791 799 805 803 811 819 826 829 823 815 820 824 831 836 839 844 849 853 857 860 864 867 869 871 872 873 875 876 879 881 883 884 885
777 771 767 780 780 780 775 775 780 783 791 786 795 815 813 811 814 820 828 826 830 825 822 827 834 837 842 846 852 856 860 863 866 869 871 872 874 876 879 879 880 882 884 885
768 768 777 780 780 775 781 772 777 785 790 810 785 826 814 809 813 813 816 827 830 825 821 822 828 834 838 844 850 854 859 862 864 867 869 871 871 872 874 877 879 881 884 885
774 778 780 781 777 775 776 772 777 779 785 787 794 794 783 797 815 812 810 820 824 826 820 821 824 829 834 842 847 852 858 861 863 865 868 870 871 872 875 876 878 880 882 884
769 762 769 771 770 776 772 779 780 781 782 803 778 787 792 794 794 800 805 807 814 821 817 822 824 827 832 839 845 850 855 859 863 865 869 870 870 871 873 875 877 879 880 882
778 776 768 770 779 776 781 783 802 810 806 802 771 791 769 774 781 786 791 799 804 817 817 820 823 825 832 836 842 847 852 857 861 865 868 870 872 872 873 875 875 877 877 878
783 794 772 766 773 779 782 775 784 814 797 786 778 799 774 765 772 775 778 789 794 810 817 820 821 824 829 834 840 844 850 854 859 862 865 869 871 872 873 873 872 874 874 878
780 778 758 761 761 766 777 788 762 775 761 772 770 772 777 775 778 780 781 782 792 804 815 813 817 821 825 831 837 841 847 852 856 859 863 865 868 870 871 871 873 875 875 877
767 780 763 764 762 763 769 763 789 785 800 803 779 781 771 780 777 777 778 780 787 803 812 813 816 819 823 828 834 839 844 849 853 857 860 863 865 866 869 870 871 873 874 875
762 767 775 767 772 769 776 779 774 765 769 781 787 773 755 766 769 774 774 777 783 795 803 810 817 820 824 829 833 836 840 845 849 853 857 860 863 865 867 868 869 871 872 874
764 761 772 768 763 759 755 760 760 782 787 773 768 780 763 764 768 770 772 775 781 792 801 812 818 820 825 829 832 834 838 841 845 849 853 857 860 862 864 866 868 867 869 872
768 769 783 781 773 768 769 765 760 756 754 771 781 772 768 769 773 774 778 780 783 794 800 807 816 821 825 828 831 833 836 839 842 845 849 853 857 860 862 864 866 867 868 870
777 767 775 777 775 759 777 775 767 762 773 768 763 760 773 770 776 783 787 794 794 799 801 807 814 819 824 827 831 833 836 839 841 843 845 850 854 857 860 862 863 866 867 869
772 783 780 771 772 771 776 775 770 772 763 768 756 755 748 764 771 782 792 800 801 804 808 810 814 820 824 827 829 833 836 838 839 842 846 849 851 855 858 860 862 863 865 867
774 784 782 784 778 779 782 775 770 770 768 769 759 760 759 761 772 788 792 797 801 806 809 813 815 819 822 826 830 832 836 839 841 841 845 847 850 853 856 857 859 861 862 864
781 780 788 790 782 782 792 776 776 772 772 772 776 774 764 776 786 790 796 799 802 806 809 813 815 820 823 826 828 833 837 840 842 843 843 845 851 854 855 856 858 859 861 862
782 785 783 787 786 809 775 770 774 776 775 771 770 769 773 776 790 796 796 801 806 807 813 818 821 823 824 827 831 833 839 842 843 843 844 847 852 854 855 854 859 860 861 862
779 781 786 795 790 776 776 778 783 784 779 772 774 777 777 791 798 802 796 796 800 809 819 823 824 826 828 830 833 836 840 842 847 847 847 851 851 853 855 855 859 861 863 864
780 781 786 788 799 800 787 783 780 779 791 775 775 777 792 798 806 806 798 801 809 817 823 827 829 830 832 835 836 839 843 846 851 853 852 848 855 857 853 857 861 861 866 865
788 788 790 787 801 786 787 786 783 800 802 783 781 777 789 799 790 799 806 812 816 821 826 830 834 835 837 838 838 840 847 852 854 854 854 855 858 857 861 861 861 869 869 866
792 794 793 791 798 804 788 790 796 793 785 784 783 782 788 797 798 806 816 818 824 827 832 834 837 840 842 843 844 845 850 854 856 858 856 858 861 862 865 866 868 870 867 869
805 790 791 792 790 791 790 793 794 791 789 786 785 785 794 794 802 813 821 823 828 830 835 839 838 842 848 847 849 852 854 857 859 861 861 861 865 865 866 867 868 870 871 870
795 796 792 796 791 790 791 793 794 793 790 790 789 793 796 797 806 814 819 827 833 836 840 840 843 846 848 852 852 851 856 859 863 864 864 866 867 868 869 870 871 872 872 872
791 797 791 791 792 794 793 794 795 795 794 793 793 796 799 801 809 816 821 828 837 842 843 844 846 848 851 854 856 859 858 863 865 864 865 868 868 868 869 871 872 874 873 875
792 792 794 790 784 788 791 796 797 795 796 797 797 800 803 807 815 821 829 827 834 846 846 846 849 851 854 855 856 858 860 864 864 864 865 866 867 870 871 874 875 877 877 878
Wind_Speed
14 10 16 16 13 7 4 5 9 9 11 14 14 10 23 15 12 8 8 14 15 14 14 14 13 13 13 14 15 14 13 11 11 10 10 10 11 9 7 7 7 6 6 3
10 15 16 4 5 9 9 8 10 6 10 7 8 10 20 22 22 17 13 20 14 14 11 13 14 14 14 14 14 15 13 12 11 9 9 8 8 10 8 7 9 7 7 5
15 15 7 10 11 11 8 7 9 7 10 4 8 7 14 15 18 18 12 4 10 11 14 13 16 16 15 15 15 15 14 13 13 10 10 9 8 5 7 9 10 8 8 7
10 6 11 13 12 11 11 5 4 11 13 5 14 5 13 16 17 22 21 14 16 18 13 16 17 18 17 16 14 14 14 13 12 11 11 12 12 10 10 7 9 9 9 8
7 10 12 12 11 8 2 3 7 7 7 5 11 8 14 17 15 19 21 19 18 16 14 13 16 18 17 15 15 14 14 12 12 12 10 12 10 11 9 9 9 10 9 10
12 6 7 8 7 9 1 7 6 5 5 8 8 11 12 16 21 20 21 23 20 18 16 14 18 16 17 16 15 15 15 13 12 12 10 11 11 9 8 10 11 11 10 11
8 13 9 4 9 8 12 12 8 9 8 9 7 7 6 13 9 21 23 23 23 17 16 12 14 18 17 17 17 16 16 15 14 13 12 11 9 9 9 9 12 10 10 12
12 15 14 13 11 8 14 17 11 11 11 11 8 6 2 7 5 10 18 22 22 19 15 12 17 17 19 19 18 17 17 16 15 14 13 10 9 10 12 11 9 10 11 9
8 7 8 13 11 13 14 16 15 14 11 8 10 8 6 8 8 11 14 20 21 19 12 15 17 18 19 19 19 19 17 17 15 15 12 11 10 8 10 9 9 8 8 11
5 7 9 12 9 12 12 8 15 10 13 14 7 8 4 10 10 12 14 20 22 21 16 13 14 16 18 19 18 18 17 17 17 15 13 11 10 8 8 8 9 10 10 10
3 8 11 10 13 15 12 12 8 15 15 12 13 8 6 5 8 12 14 18 21 21 19 15 13 14 14 14 16 18 18 17 17 17 15 12 10 9 7 7 7 9 11 12
3 7 9 11 6 5 9 15 16 11 14 10 14 4 5 6 6 9 12 16 18 21 18 10 12 13 11 12 14 14 16 17 17 17 17 14 12 11 9 8 7 10 12 12
2 6 7 7 9 6 10 6 11 10 13 11 14 12 5 7 7 9 11 11 13 16 18 17 17 13 12 10 9 13 14 15 16 17 18 15 13 12 11 9 8 6 11 12
3 7 10 6 7 1 9 8 7 13 12 14 12 8 8 11 11 11 10 11 10 9 12 12 12 13 10 11 11 12 14 14 13 16 17 15 13 12 10 9 10 11 8 9
4 9 5 7 4 2 2 6 6 12 16 14 10 12 9 11 12 12 12 11 11 12 11 10 9 10 9 9 10 14 15 15 17 13 13 13 12 9 7 6 7 10 10 11
2 6 8 9 4 5 8 6 7 5 6 9 10 7 5 10 10 12 12 13 12 12 11 10 8 10 8 10 13 15 17 17 18 18 14 12 10 9 6 5 3 6 11 12
3 2 7 11 6 7 11 6 1 2 3 4 8 8 2 10 10 12 11 10 9 8 8 8 8 11 13 15 22 20 15 14 14 16 14 12 9 8 7 5 4 6 7 7
4 6 4 9 5 13 7 4 4 4 5 1 5 5 3 7 8 9 10 8 8 8 7 7 9 11 13 17 20 22 20 14 12 12 12 10 7 7 7 10 4 4 4 6
4 7 4 8 10 10 5 4 4 6 2 5 5 1 7 11 11 9 12 12 9 10 10 11 12 13 14 14 18 20 18 19 12 12 13 12 8 9 9 10 6 5 5 7
3 6 7 4 10 7 11 6 4 4 9 6 5 3 11 12 8 3 10 10 14 16 15 14 15 19 19 16 18 22 22 18 12 11 13 13 10 8 10 7 8 5 5 8
9 8 11 9 8 3 5 7 3 9 3 8 5 2 12 11 5 15 12 12 17 18 20 20 18 21 19 18 20 23 18 14 11 12 15 15 10 10 8 8 8 7 8 11
8 8 7 7 7 11 5 3 7 7 5 5 2 3 11 3 13 15 13 14 18 19 17 18 19 17 16 17 20 20 17 11 11 10 14 13 13 12 10 10 9 7 10 10
5 4 5 4 4 5 5 4 5 7 7 6 3 3 8 13 16 15 11 11 15 17 17 15 20 20 12 14 12 13 16 12 11 10 10 13 11 12 11 10 10 9 8 6
4 2 4 3 6 5 4 3 5 6 6 3 1 9 9 14 16 17 15 15 14 15 14 16 16 13 12 9 11 13 10 10 9 10 10 10 9 10 9 9 9 7 7 7
3 4 5 4 4 4 4 4 5 6 6 7 7 9 9 13 16 15 15 18 13 11 12 13 14 13 13 11 11 11 11 9 9 10 9 8 9 9 10 10 10 9 9 6
5 5 5 4 6 4 8 4 3 5 7 7 8 9 11 14 16 22 17 22 20 7 6 9 11 13 13 11 10 9 9 9 8 9 8 7 8 8 9 10 12 11 10 9
Wind_Direction
191 205 210 197 214 334 181 194 165 107 157 178 190 163 163 170 160 202 202 210 184 184 171 163 175 171 173 174 176 178 175 176 180 180 176 173 172 167 169 176 167 161 154 123
169 219 204 211 193 217 196 187 139 118 155 217 165 158 165 171 177 189 199 208 208 176 183 173 190 182 186 183 184 187 189 184 185 184 189 192 192 187 182 178 175 171 168 155
193 199 140 208 198 207 204 219 150 144 168 211 166 148 164 183 184 180 205 179 214 244 190 191 192 196 189 188 192 188 192 194 199 209 197 191 190 194 194 186 188 188 185 181
210 122 190 204 215 223 199 164 151 144 179 186 210 163 194 179 185 191 190 181 211 222 218 192 194 200 195 191 191 189 190 194 193 198 202 206 210 211 193 196 192 193 201 205
140 169 193 197 201 207 52 167 202 178 223 181 196 266 148 178 198 197 195 200 200 212 218 229 202 196 198 188 187 188 187 193 192 198 208 202 208 200 211 211 189 199 200 210
125 185 188 210 213 219 181 193 187 200 240 231 199 235 154 184 203 203 195 200 202 200 207 210 220 191 196 188 186 184 188 194 202 205 214 222 199 197 197 194 198 195 191 198
162 173 173 214 192 195 210 204 197 217 205 239 122 218 302 172 195 204 195 200 196 197 200 212 202 198 191 193 189 187 188 196 206 210 209 221 220 210 209 199 194 191 199 196
205 188 191 187 227 183 212 218 229 207 228 223 145 234 164 174 164 200 196 197 196 183 192 195 201 192 186 195 192 194 189 192 201 207 210 206 214 217 221 211 189 196 203 181
203 213 172 179 203 224 191 233 263 291 271 250 168 191 168 178 198 193 203 196 191 174 187 196 197 195 193 189 193 193 194 194 200 204 212 206 209 214 202 200 195 207 193 185
197 184 194 177 208 215 266 222 220 232 259 224 196 232 246 191 194 187 191 192 188 173 189 192 194 201 192 191 188 192 195 200 201 205 206 214 215 224 226 216 189 200 195 191
257 269 152 177 205 193 195 229 243 263 231 255 235 200 92 174 180 182 185 183 177 188 180 179 178 180 192 191 192 194 193 198 201 202 206 210 213 214 222 227 215 201 197 200
194 258 176 182 71 306 274 219 223 224 222 257 290 33 113 134 173 177 178 178 178 186 171 153 175 172 168 183 192 195 195 196 201 200 201 206 214 212 214 224 231 212 196 198
164 247 212 180 180 173 221 203 256 259 265 254 230 248 147 156 168 170 176 164 166 177 185 188 174 178 192 183 185 186 196 196 195 195 195 201 207 213 218 218 221 214 200 208
276 287 289 297 11 1 186 209 230 249 233 237 235 234 162 172 173 164 165 174 172 176 174 185 192 185 193 188 187 184 184 189 191 190 188 189 193 202 209 218 210 224 207 205
279 262 268 299 331 320 307 250 227 239 250 275 280 225 232 173 179 168 161 145 153 156 169 179 182 182 159 175 185 185 177 162 156 152 162 169 167 177 186 204 218 217 215 217
244 249 255 232 219 224 249 247 254 225 269 260 279 255 9 145 149 166 173 164 163 164 163 165 168 151 163 170 162 158 153 152 152 143 137 138 137 139 151 160 195 210 209 209
252 212 227 240 197 236 234 213 272 269 254 321 261 37 91 151 173 173 166 161 167 161 159 159 158 153 151 132 128 117 119 135 137 133 132 123 122 123 125 117 150 168 171 176
251 250 260 269 188 227 91 91 10 1 46 306 292 332 238 168 157 151 161 151 147 161 139 107 94 94 113 130 134 130 134 135 144 150 137 132 139 117 115 110 109 125 139 138
243 245 214 264 235 246 182 106 2 331 1 11 349 65 106 122 129 168 184 173 152 126 116 103 99 103 115 124 136 132 129 135 125 120 120 130 126 130 126 119 107 89 119 122
222 244 265 246 272 254 61 54 353 298 246 25 6 122 146 148 177 151 144 131 122 123 123 117 105 104 105 106 120 123 114 115 117 127 124 111 118 105 96 103 111 102 125 117
210 234 240 217 238 236 69 351 318 236 52 356 351 146 166 190 333 155 137 127 122 121 123 120 110 101 108 119 123 99 98 92 105 119 121 115 103 118 112 115 97 143 130 112
246 230 224 257 271 257 38 216 287 3 312 343 320 188 169 135 124 131 128 122 119 118 119 118 111 104 111 114 115 112 107 111 115 116 114 111 117 117 107 115 113 109 104 116
243 293 307 279 55 89 65 44 5 342 316 313 312 156 150 143 134 132 135 117 124 129 132 124 117 118 118 126 124 127 129 135 129 116 108 111 111 110 107 97 87 87 93 111
193 219 250 253 141 138 89 90 29 12 9 16 147 147 158 143 143 143 136 128 119 123 132 133 127 126 119 126 139 126 136 135 136 126 119 116 111 98 91 85 78 82 82 87
358 180 205 225 164 170 157 81 35 51 57 83 106 143 150 146 140 142 128 116 115 125 136 135 131 130 132 138 137 144 134 143 146 130 127 125 113 106 91 80 78 75 80 103
197 235 227 280 105 253 116 120 97 73 79 89 118 134 143 152 149 144 136 127 130 134 145 142 145 147 147 144 138 137 143 155 149 140 140 133 124 127 121 110 93 89 85 85